Regional Weather Roundup
Issued by NWS

Home | Current Version | Previous Version | Text Only | Print | Product List | Glossary On
Versions: 1 2 3 4 5 6 7 8 9 10 11 12 13 14 15 16 17 18 19 20 21 22 23 24 25 26 27 28 29 30 31 32 33 34 35 36 37 38 39 40 41 42 43 44 45 46 47 48 49 50
000
ASUS45 KCYS 292010
RWRWY

WYOMING REGIONAL WEATHER ROUNDUP
NATIONAL WEATHER SERVICE CHEYENNE WY
200 PM MDT FRI MAY 29 2015

NOTE:  "FAIR" INDICATES FEW OR NO CLOUDS BELOW 12,000 FEET
WITH NO SIGNIFICANT WEATHER AND/OR OBSTRUCTIONS TO VISIBILITY.

WYZ001-292100-
YELLOWSTONE NATIONAL PARK

CITY           SKY/WX    TMP DP  RH WIND       PRES   REMARKS
LK YELLOWSTONE   N/A     51  34  52 SE6       30.33F
W YELLOWSTONE  NOT AVBL

$$
WYZ002>013-054>058-071-098>099-292100-
NORTHERN WYOMING

CITY           SKY/WX    TMP DP  RH WIND       PRES   REMARKS
JACKSON        SUNNY     61  39  44 S9        30.28F
CODY           FAIR      57  46  67 CALM      30.26F
GREYBULL         N/A     66  43  43 N6        30.22F
WORLAND        FAIR      64  45  49 VRB5      30.24F
SHERIDAN       CLOUDY    51  45  79 CALM      30.31F
BUFFALO        CLOUDY    48  44  86 N9        30.32R
GILLETTE       FAIR      55  36  48 N15       30.28F
HULETT         FAIR      52  37  58 N9        30.30S
NEWCASTLE      FAIR      54  43  66 NW21G29   30.25S

$$
WYZ014>020-022>026-101>103-292100-
CENTRAL WYOMING

CITY           SKY/WX    TMP DP  RH WIND       PRES   REMARKS
BIG PINEY      FAIR      59  37  44 SW10      30.31F
PINEDALE       CLOUDY    54  34  47 SW5       30.32F
DUBOIS         CLOUDY    54  37  54 SE10G20   30.30R
LANDER         LGT RAIN  57  47  69 E9        30.28S
RIVERTON       PTSUNNY   56  45  66 E12       30.30F
CASPER         CLOUDY    50  44  80 NE10      30.32S
DOUGLAS        LGT RAIN  51  46  83 NW12      30.30R

$$
WYZ021-027>030-104>119-292100-
SOUTHERN WYOMING

CITY           SKY/WX    TMP DP  RH WIND       PRES   REMARKS
EVANSTON       FAIR      60  36  40 CALM      30.30F
KEMMERER       FAIR      61  36  39 CALM      30.33S
FORT BRIDGER   MOCLDY    61  41  48 E3        30.34F
ROCK SPRINGS   LGT RAIN  53  42  66 N9        30.32S
DIXON          FAIR      53  45  74 S7        30.32F
RAWLINS        PTSUNNY   54  40  59 NE6       30.32F
SARATOGA       MOCLDY    55  41  58 N9G17     30.33S
LARAMIE        PTSUNNY   53  40  61 N17       30.29S
CHEYENNE       PTSUNNY   55  42  61 N23G35    30.25R
TORRINGTON     LGT RAIN  52  48  86 NE13      30.24R
PINE BLUFFS    CLOUDY    54  45  71 N22G30    30.24R

$$


USA.gov is the U.S. government's official web portal to all federal, state and local government web resources and services.